• In Romania
  • List of Countries
  • For 7 days
  • Water Temperature
  • Satellite Maps
  • Weather Map
  • Weather Widgets
  • user-avatar
    Login

    Hourly Weather Bolshie Karkaly

    Today, 18 October, Thursday

    Time Temperature Precipitation Wind Pressure Humidity
    00:00 +2°C° 0 mm 5 mps 733 mmHg 75%
    01:00 +3°C° 0 mm 4 mps 734 mmHg 77%
    02:00 +1°C° 0 mm 4 mps 734 mmHg 79%
    03:00 +1°C° 0 mm 4 mps 734 mmHg 82%
    04:00 0°C° 0 mm 4 mps 734 mmHg 85%
    05:00 0°C° 0 mm 4 mps 735 mmHg 86%
    06:00 +1°C° 0 mm 3 mps 735 mmHg 88%
    07:00 0°C° 0 mm 3 mps 735 mmHg 89%
    08:00 0°C° 0 mm 4 mps 735 mmHg 83%
    09:00 +1°C° 0 mm 5 mps 735 mmHg 77%
    10:00 +3°C° 0 mm 6 mps 735 mmHg 70%
    11:00 +3°C° 0 mm 6 mps 735 mmHg 66%
    12:00 +4°C° 0 mm 6 mps 735 mmHg 63%
    13:00 +5°C° 0 mm 6 mps 735 mmHg 59%
    14:00 +5°C° 0 mm 6 mps 735 mmHg 60%
    15:00 +6°C° 0 mm 5 mps 735 mmHg 61%
    16:00 +7°C° 0 mm 4 mps 735 mmHg 58%
    17:00 +6°C° 0 mm 4 mps 735 mmHg 63%
    18:00 +5°C° 0 mm 3 mps 735 mmHg 68%
    19:00 +4°C° 0 mm 3 mps 735 mmHg 73%
    20:00 +4°C° 0 mm 3 mps 735 mmHg 75%
    21:00 +3°C° 0 mm 3 mps 734 mmHg 77%
    22:00 +3°C° 0 mm 3 mps 734 mmHg 80%
    23:00 +3°C° 0 mm 3 mps 734 mmHg 80%

    Tomorrow, 19 October, Friday

    Time Temperature Precipitation Wind Pressure Humidity
    00:00 +3°C° 0 mm 3 mps 734 mmHg 80%
    01:00 +2°C° 0 mm 3 mps 734 mmHg 80%
    02:00 +2°C° 0 mm 3 mps 734 mmHg 79%
    03:00 +1°C° 0 mm 4 mps 733 mmHg 79%
    04:00 +3°C° 0 mm 4 mps 733 mmHg 78%
    05:00 +3°C° 0 mm 4 mps 733 mmHg 77%
    06:00 +2°C° 0 mm 5 mps 733 mmHg 77%
    07:00 +2°C° 0 mm 5 mps 733 mmHg 76%
    08:00 +3°C° 0 mm 5 mps 733 mmHg 75%
    09:00 +5°C° 0 mm 5 mps 732 mmHg 73%
    10:00 +6°C° 0 mm 5 mps 732 mmHg 72%
    11:00 +8°C° 0 mm 6 mps 732 mmHg 70%
    12:00 +9°C° 0 mm 6 mps 732 mmHg 69%
    13:00 +10°C° 0 mm 6 mps 732 mmHg 67%
    14:00 +10°C° 0 mm 6 mps 732 mmHg 68%
    15:00 +10°C° 0 mm 5 mps 732 mmHg 69%
    16:00 +10°C° 0 mm 5 mps 731 mmHg 70%
    17:00 +10°C° 0 mm 5 mps 731 mmHg 74%
    18:00 +9°C° 0 mm 5 mps 731 mmHg 79%
    19:00 +8°C° 0 mm 5 mps 731 mmHg 83%
    20:00 +8°C° 0 mm 5 mps 731 mmHg 84%
    21:00 +7°C° 0 mm 5 mps 731 mmHg 85%
    22:00 +7°C° 0 mm 5 mps 731 mmHg 87%
    23:00 +7°C° 0.1 mm 5 mps 731 mmHg 88%

    Day after tomorrow, 20 October, Saturday

    Time Temperature Precipitation Wind Pressure Humidity
    00:00 +7°C° 0.1 mm 5 mps 731 mmHg 88%
    01:00 +7°C° 0.1 mm 5 mps 730 mmHg 89%
    02:00 +7°C° 0.1 mm 5 mps 730 mmHg 89%
    03:00 +7°C° 0.1 mm 5 mps 730 mmHg 89%
    04:00 +6°C° 0.1 mm 5 mps 730 mmHg 89%
    05:00 +6°C° 0.1 mm 5 mps 730 mmHg 88%
    06:00 +6°C° 0.1 mm 5 mps 729 mmHg 87%
    07:00 +6°C° 0.1 mm 5 mps 729 mmHg 85%
    08:00 +7°C° 0.1 mm 6 mps 729 mmHg 81%
    09:00 +8°C° 0.1 mm 6 mps 729 mmHg 77%
    10:00 +8°C° 0.1 mm 7 mps 729 mmHg 72%
    11:00 +9°C° 0 mm 7 mps 729 mmHg 69%
    12:00 +10°C° 0 mm 7 mps 729 mmHg 67%
    13:00 +11°C° 0 mm 7 mps 729 mmHg 64%
    14:00 +11°C° 0.3 mm 7 mps 728 mmHg 67%
    15:00 +10°C° 0.3 mm 6 mps 728 mmHg 71%
    16:00 +10°C° 0.3 mm 6 mps 728 mmHg 74%
    17:00 +9°C° 0.5 mm 5 mps 728 mmHg 79%
    18:00 +8°C° 0.5 mm 5 mps 729 mmHg 84%
    19:00 +8°C° 0.5 mm 4 mps 729 mmHg 88%
    20:00 +7°C° 0.1 mm 4 mps 729 mmHg 89%
    21:00 +7°C° 0.1 mm 3 mps 729 mmHg 90%
    22:00 +5°C° 0.1 mm 3 mps 729 mmHg 90%
    23:00 +4°C° 0 mm 3 mps 730 mmHg 91%

    21 October, Sunday

    Time Temperature Precipitation Wind Pressure Humidity
    00:00 +4°C° 0 mm 3 mps 730 mmHg 91%
    01:00 +4°C° 0 mm 2 mps 730 mmHg 91%
    02:00 +4°C° 0 mm 2 mps 731 mmHg 91%
    03:00 +3°C° 0 mm 3 mps 731 mmHg 92%
    04:00 +2°C° 0 mm 3 mps 731 mmHg 92%
    05:00 +3°C° 0 mm 2 mps 732 mmHg 92%
    06:00 +3°C° 0 mm 2 mps 732 mmHg 93%
    07:00 +2°C° 0 mm 2 mps 732 mmHg 93%
    08:00 +3°C° 0 mm 2 mps 733 mmHg 88%
    09:00 +4°C° 0 mm 3 mps 733 mmHg 83%
    10:00 +5°C° 0 mm 3 mps 734 mmHg 79%
    11:00 +5°C° 0 mm 3 mps 734 mmHg 75%
    12:00 +7°C° 0 mm 3 mps 734 mmHg 71%
    13:00 +7°C° 0 mm 3 mps 735 mmHg 68%
    14:00 +7°C° 0 mm 3 mps 735 mmHg 68%
    15:00 +7°C° 0 mm 3 mps 735 mmHg 68%
    16:00 +7°C° 0 mm 3 mps 735 mmHg 67%
    17:00 +5°C° 0 mm 3 mps 735 mmHg 71%
    18:00 +5°C° 0 mm 2 mps 736 mmHg 74%
    19:00 +4°C° 0 mm 2 mps 736 mmHg 77%
    20:00 +4°C° 0 mm 2 mps 736 mmHg 79%
    21:00 +3°C° 0 mm 2 mps 736 mmHg 82%
    22:00 +3°C° 0 mm 1 mps 736 mmHg 84%
    23:00 +3°C° 0 mm 1 mps 737 mmHg 86%

    22 October, Monday

    Time Temperature Precipitation Wind Pressure Humidity
    00:00 +3°C° 0 mm 1 mps 737 mmHg 87%
    01:00 +2°C° 0 mm 1 mps 737 mmHg 88%
    02:00 +2°C° 0 mm 1 mps 737 mmHg 89%
    03:00 +2°C° 0 mm 1 mps 737 mmHg 89%
    04:00 +1°C° 0 mm 1 mps 737 mmHg 90%
    05:00 +1°C° 0 mm 1 mps 737 mmHg 90%
    06:00 +1°C° 0 mm 1 mps 737 mmHg 90%
    07:00 +1°C° 0 mm 1 mps 738 mmHg 91%
    08:00 +2°C° 0 mm 1 mps 738 mmHg 85%
    09:00 +3°C° 0 mm 1 mps 738 mmHg 80%
    10:00 +2°C° 0 mm 2 mps 738 mmHg 74%
    11:00 +3°C° 0 mm 2 mps 738 mmHg 70%
    12:00 +4°C° 0 mm 2 mps 738 mmHg 66%
    13:00 +4°C° 0 mm 2 mps 738 mmHg 62%
    14:00 +4°C° 0 mm 2 mps 738 mmHg 63%
    15:00 +4°C° 0 mm 2 mps 738 mmHg 64%
    16:00 +4°C° 0 mm 2 mps 738 mmHg 64%
    17:00 +3°C° 0 mm 2 mps 738 mmHg 69%
    18:00 +2°C° 0 mm 2 mps 738 mmHg 75%
    19:00 +1°C° 0 mm 2 mps 738 mmHg 80%
    20:00 +1°C° 0 mm 2 mps 738 mmHg 81%
    21:00 -1°C° 0 mm 2 mps 738 mmHg 83%
    22:00 -1°C° 0 mm 2 mps 738 mmHg 84%
    23:00 +1°C° 0 mm 1 mps 738 mmHg 84%

    23 October, Tuesday

    Time Temperature Precipitation Wind Pressure Humidity
    00:00 0°C° 0 mm 1 mps 738 mmHg 84%
    01:00 0°C° 0 mm 1 mps 738 mmHg 84%
    02:00 0°C° 0 mm 1 mps 738 mmHg 83%
    03:00 0°C° 0 mm 1 mps 738 mmHg 82%
    04:00 0°C° 0 mm 1 mps 738 mmHg 81%
    05:00 0°C° 0 mm 1 mps 738 mmHg 80%
    06:00 0°C° 0 mm 1 mps 737 mmHg 79%
    07:00 0°C° 0 mm 1 mps 737 mmHg 78%
    08:00 +1°C° 0 mm 1 mps 737 mmHg 72%
    09:00 +2°C° 0 mm 1 mps 737 mmHg 65%
    10:00 +3°C° 0 mm 2 mps 738 mmHg 59%
    11:00 +4°C° 0 mm 2 mps 737 mmHg 55%
    12:00 +5°C° 0 mm 2 mps 737 mmHg 52%
    13:00 +6°C° 0 mm 2 mps 737 mmHg 48%
    14:00 +6°C° 0 mm 2 mps 737 mmHg 51%
    15:00 +6°C° 0 mm 2 mps 737 mmHg 54%
    16:00 +5°C° 0 mm 2 mps 736 mmHg 57%
    17:00 +4°C° 0 mm 2 mps 736 mmHg 60%
    18:00 +3°C° 0 mm 3 mps 736 mmHg 63%
    19:00 +2°C° 0 mm 3 mps 736 mmHg 66%
    20:00 +1°C° 0 mm 3 mps 735 mmHg 66%
    21:00 +1°C° 0 mm 3 mps 735 mmHg 66%
    22:00 +1°C° 0 mm 3 mps 735 mmHg 67%
    23:00 +1°C° 0 mm 3 mps 734 mmHg 69%
    Show more